Detroit, MI

5:52 PM EDT on August 27, 2016 (GMT -0400)
Detroit Metro Wayne County

Weather History for KDTW - January, 2014

Change the Weather History Date:

Saturday, January 4, 2014

  Actual Average Record
Temperature  
Mean Temperature 21 °F 26 °F  
Max Temperature 31 °F 32 °F 61 °F (1997)
Min Temperature 10 °F 20 °F -12 °F (1981)
Degree Days  
Heating Degree Days 44 39  
Month to date heating degree days 211 156  
Since 1 July heating degree days 2690 2453  
Cooling Degree Days 0 0  
Month to date cooling degree days 0 0  
Year to date cooling degree days 0 0  
Moisture  
Dew Point 12 °F    
Average Humidity 65    
Maximum Humidity 75    
Minimum Humidity 55    
Precipitation  
Precipitation T in 0.07 in 1.59 in (1993)
Month to date precipitation 0.46 0.29  
Year to date precipitation 0.46 0.29  
Snow  
Snow T in 0.40 in 2.80 in (2004)
Month to date snowfall 10.8 1.6  
Since 1 July snowfall 27.5 12.8  
Snow Depth 8.00 in    
Sea Level Pressure  
Sea Level Pressure 30.05 in    
Wind  
Wind Speed 14 mph (South)    
Max Wind Speed 29 mph    
Max Gust Speed 36 mph    
Visibility 10 miles    
Events      
T = Trace of Precipitation, MM = Missing Value Source: NWS Daily Summary

Daily Weather History Graph

Daily Weather History Graph

Search for Another Location

Airport or City:

Trip Planner

Search our weather history database for the weather conditions in past years. The results will help you decide how hot, cold, wet, or windy it might be!

Date:

Astronomy

Jan. 04, 2014 Rise Set
Actual Time 8:02 AM EST 5:14 PM EST
Civil Twilight 7:30 AM EST 5:46 PM EST
Nautical Twilight 6:55 AM EST 6:21 PM EST
Astronomical Twilight 6:21 AM EST 6:55 PM EST
Moon 10:02 AM EST (1/4) 9:38 PM EST (1/4)
Length of Visible Light 10h 15m
Length of Day
9h 12m
Waxing Crescent, 15% of the Moon is Illuminated
Jan 4
Waxing Crescent
Jan 7
First Quarter
Jan 15
Full
Jan 24
Last Quarter
Jan 30
New

Hourly Weather History & Observations

Time (EST) Temp. Windchill Dew Point Humidity Pressure Visibility Wind Dir Wind Speed Gust Speed Precip Events Conditions
12:53 AM 10.9 °F -5.4 °F 1.0 °F 64% 30.19 in 10.0 mi South 15.0 mph - N/A   Partly Cloudy
1:53 AM 10.9 °F -5.9 °F 1.9 °F 67% 30.16 in 10.0 mi SSE 16.1 mph - N/A   Scattered Clouds
2:53 AM 10.9 °F -4.7 °F 1.9 °F 67% 30.15 in 10.0 mi SSE 13.8 mph - N/A   Scattered Clouds
3:53 AM 12.0 °F -4.5 °F 1.9 °F 64% 30.12 in 10.0 mi South 16.1 mph - N/A   Scattered Clouds
4:53 AM 12.9 °F -2.8 °F 3.0 °F 65% 30.08 in 10.0 mi South 15.0 mph - N/A   Partly Cloudy
5:53 AM 12.9 °F -2.8 °F 3.9 °F 67% 30.06 in 10.0 mi South 15.0 mph - N/A   Partly Cloudy
6:53 AM 12.9 °F -0.2 °F 3.9 °F 67% 30.05 in 10.0 mi South 10.4 mph - N/A   Partly Cloudy
7:53 AM 12.9 °F 1.6 °F 3.9 °F 67% 30.04 in 10.0 mi SSE 8.1 mph - N/A   Scattered Clouds
8:53 AM 15.1 °F 1.8 °F 5.0 °F 64% 30.02 in 10.0 mi South 11.5 mph - N/A   Mostly Cloudy
9:53 AM 21.0 °F 7.1 °F 8.1 °F 57% 30.01 in 10.0 mi South 16.1 mph 24.2 mph N/A   Mostly Cloudy
10:53 AM 24.1 °F 8.3 °F 10.9 °F 57% 30.01 in 10.0 mi SSW 24.2 mph 32.2 mph N/A   Mostly Cloudy
11:53 AM 25.0 °F 10.2 °F 12.0 °F 58% 29.99 in 9.0 mi SSW 21.9 mph 28.8 mph N/A   Mostly Cloudy
12:53 PM 27.0 °F 12.8 °F 14.0 °F 58% 29.97 in 9.0 mi South 21.9 mph 33.4 mph N/A   Mostly Cloudy
1:53 PM 27.0 °F 13.2 °F 16.0 °F 63% 29.96 in 10.0 mi SSW 20.7 mph 31.1 mph N/A   Overcast
2:53 PM 28.0 °F 14.6 °F 17.1 °F 63% 29.96 in 10.0 mi SSW 20.7 mph 27.6 mph N/A   Overcast
3:53 PM 28.9 °F 17.7 °F 18.0 °F 64% 29.99 in 10.0 mi SSW 15.0 mph - N/A   Overcast
4:53 PM 28.9 °F 17.3 °F 19.0 °F 67% 30.01 in 10.0 mi South 16.1 mph - N/A   Overcast
5:53 PM 28.0 °F 17.0 °F 19.0 °F 69% 30.01 in 10.0 mi South 13.8 mph - N/A   Overcast
6:53 PM 28.0 °F 17.5 °F 19.0 °F 69% 30.03 in 10.0 mi South 12.7 mph - N/A   Overcast
7:53 PM 30.0 °F 19.5 °F 19.9 °F 66% 30.05 in 10.0 mi SSW 13.8 mph - N/A   Overcast
8:53 PM 30.9 °F 21.7 °F 19.9 °F 64% 30.06 in 9.0 mi SSW 11.5 mph - 0.00 in   Overcast
9:53 PM 30.0 °F 23.2 °F 21.0 °F 69% 30.05 in 10.0 mi South 6.9 mph - 0.00 in   Overcast
10:53 PM 28.9 °F 22.8 °F 21.9 °F 75% 30.06 in 10.0 mi South 5.8 mph - 0.00 in   Overcast
11:53 PM 30.0 °F - 21.0 °F 69% 30.06 in 10.0 mi Calm Calm - N/A   Overcast